Location: ?????????
(55.6553°N, 38.9075°E)
Time: 10:20:39
(UTC+00:00)

Cosmos 1943 Rocket - Pass Details

Date: 18 October 2019
Orbit: 810 x 845 km, 71.0° (Epoch: 18 November)

Event Time Altitude Azimuth Distance (km) Brightness Sun altitude
Rises 02:34:22 0° 325° (NW) 3,405 5.0 -12.8°
Reaches altitude 10° 02:36:51 10° 328° (NNW) 2,471 4.3 -12.4°
Maximum altitude 02:42:30 66° 51° (NE) 925 2.6 -11.6°
Drops below altitude 10° 02:48:09 10° 134° (SE) 2,467 5.4 -10.8°
Sets 02:50:37 0° 137° (SE) 3,399 6.1 -10.5°
